Weather History for KBUF - April, 2014

Change the Weather History Date:

Thursday, April 17, 2014

  Actual Average Record
Temperature  
Mean Temperature 45 °F 47 °F  
Max Temperature 61 °F 56 °F 80 °F (1976)
Min Temperature 29 °F 37 °F 15 °F (1875)
Degree Days  
Heating Degree Days 20 18  
Month to date heating degree days 361 369  
Since 1 July heating degree days 6645 6074  
Cooling Degree Days 0 0  
Month to date cooling degree days 0 0  
Year to date cooling degree days 0 0  
Moisture  
Dew Point 22 °F    
Average Humidity 47    
Maximum Humidity 69    
Minimum Humidity 25    
Precipitation  
Precipitation 0.00 in 0.10 in 0.71 in (1918)
Month to date precipitation 2.78 1.79  
Year to date precipitation 12.11 10.33  
Snow  
Snow 0.00 in 0.10 in 2.50 in (1928)
Month to date snowfall 1.2 2.3  
Since 1 July snowfall 129.9 94.0  
Snow Depth 0.00 in    
Sea Level Pressure  
Sea Level Pressure 30.47 in    
Wind  
Wind Speed 9 mph (SE)    
Max Wind Speed 17 mph    
Max Gust Speed 22 mph    
Visibility 10 miles    
Events      
T = Trace of Precipitation, MM = Missing Value Source: NWS Daily Summary

Daily Weather History Graph

Daily Weather History Graph

Search for Another Location

Airport or City:

Trip Planner

Search our weather history database for the weather conditions in past years. The results will help you decide how hot, cold, wet, or windy it might be!

Date:

Astronomy

Apr. 17, 2014 Rise Set
Actual Time 6:29 AM EDT 7:59 PM EDT
Civil Twilight 6:00 AM EDT 8:29 PM EDT
Nautical Twilight 5:24 AM EDT 9:05 PM EDT
Astronomical Twilight 4:46 AM EDT 9:43 PM EDT
Moon 10:46 PM EDT (4/17) 7:57 AM EDT (4/17)
Length of Visible Light 14h 29m
Length of Day
13h 29m
Waning Gibbous, 94% of the Moon is Illuminated
Apr 17
Waning Gibbous
Apr 22
Last Quarter
Apr 29
New
May 6
First Quarter
May 14
Full

Hourly Weather History & Observations

Time (EDT) Temp. Windchill Dew Point Humidity Pressure Visibility Wind Dir Wind Speed Gust Speed Precip Events Conditions
12:54 AM 30.9 °F 21.7 °F 18.0 °F 59% 30.56 in 10.0 mi East 11.5 mph - N/A   Scattered Clouds
1:54 AM 30.0 °F 22.4 °F 19.0 °F 64% 30.56 in 10.0 mi ENE 8.1 mph - N/A   Mostly Cloudy
2:54 AM 30.0 °F 22.4 °F 19.9 °F 66% 30.54 in 10.0 mi ENE 8.1 mph - N/A   Mostly Cloudy
3:54 AM 30.0 °F 21.7 °F 19.9 °F 66% 30.54 in 10.0 mi ENE 9.2 mph - N/A   Mostly Cloudy
4:54 AM 30.0 °F 23.2 °F 19.9 °F 66% 30.54 in 10.0 mi East 6.9 mph - N/A   Scattered Clouds
5:54 AM 28.9 °F 21.9 °F 19.0 °F 67% 30.55 in 10.0 mi East 6.9 mph - N/A   Scattered Clouds
6:54 AM 30.0 °F 22.4 °F 19.0 °F 64% 30.56 in 10.0 mi East 8.1 mph - N/A   Mostly Cloudy
7:54 AM 34.0 °F 28.0 °F 18.0 °F 52% 30.58 in 10.0 mi ENE 6.9 mph - N/A   Mostly Cloudy
8:54 AM 37.0 °F 29.3 °F 18.0 °F 46% 30.55 in 10.0 mi ESE 11.5 mph - N/A   Mostly Cloudy
9:54 AM 41.0 °F 33.1 °F 18.0 °F 40% 30.53 in 10.0 mi SE 15.0 mph - N/A   Mostly Cloudy
10:54 AM 45.0 °F 40.1 °F 21.0 °F 39% 30.52 in 10.0 mi SE 9.2 mph - N/A   Mostly Cloudy
11:54 AM 48.2 °F - 21.2 °F 34% 30.49 in 10.0 mi South 8.1 mph - N/A   Mostly Cloudy
12:54 PM 51.1 °F - 21.9 °F 32% 30.48 in 10.0 mi Variable 3.5 mph - N/A   Mostly Cloudy
1:54 PM 53.1 °F - 24.1 °F 32% 30.45 in 10.0 mi SE 8.1 mph - N/A   Mostly Cloudy
2:54 PM 55.9 °F - 25.0 °F 30% 30.43 in 10.0 mi Variable 5.8 mph - N/A   Mostly Cloudy
3:54 PM 57.0 °F - 24.1 °F 28% 30.40 in 10.0 mi Variable 4.6 mph - N/A   Mostly Cloudy
4:54 PM 60.1 °F - 25.0 °F 26% 30.38 in 10.0 mi SSE 9.2 mph - N/A   Mostly Cloudy
5:54 PM 60.1 °F - 25.0 °F 26% 30.38 in 10.0 mi SE 8.1 mph - N/A   Mostly Cloudy
6:54 PM 59.0 °F - 25.0 °F 27% 30.36 in 10.0 mi South 9.2 mph - N/A   Mostly Cloudy
7:54 PM 57.0 °F - 25.0 °F 29% 30.37 in 10.0 mi South 6.9 mph - N/A   Mostly Cloudy
8:54 PM 54.0 °F - 26.1 °F 34% 30.37 in 10.0 mi SSE 11.5 mph - N/A   Mostly Cloudy
9:54 PM 52.0 °F - 26.1 °F 37% 30.38 in 10.0 mi SSE 11.5 mph - N/A   Mostly Cloudy
10:54 PM 52.0 °F - 25.0 °F 35% 30.36 in 10.0 mi South 13.8 mph - N/A   Overcast
11:54 PM 50.0 °F - 25.0 °F 38% 30.36 in 10.0 mi South 12.7 mph - N/A   Mostly Cloudy